ITY1463 LIRF-LIPZ

Flight info

Callsign ITY1463
Flight time 0h 40m
Altitude 28000
Route SOVAN DCT AMTEL DCT BIKTU DCT OGAPU DCT GOXIN DCT SUKOM/N0354F180 Q125 NIMUM Z43 OTGIG
Aircraft A320/M-SDE3FGHIRWY/LB1

Departure

Time 2026-02-19 10:56
Airport Rome–Fiumicino Leonardo da Vinci International Airport (LIRF)

Arrival

Time 2026-02-19 11:36
Airport Venice Marco Polo Airport (LIPZ)
Time Latitude Longitude Altitude Speed Heading
2026-02-19 10:20 41.79792 12.25528 14 ft 0 kts 115°
2026-02-19 10:43 41.79793 12.25525 14 ft 2 kts 115°
2026-02-19 10:43 41.79801 12.25503 16 ft 3 kts 115°
2026-02-19 10:43 41.79808 12.25480 14 ft 3 kts 94°
2026-02-19 10:43 41.79805 12.25458 14 ft 3 kts 46°
2026-02-19 10:44 41.79796 12.25447 16 ft 0 kts 25°
2026-02-19 10:44 41.79820 12.25463 14 ft 3 kts 25°
2026-02-19 10:44 41.79838 12.25474 14 ft 3 kts 25°
2026-02-19 10:45 41.79857 12.25486 16 ft 3 kts 25°
2026-02-19 10:45 41.79875 12.25497 14 ft 3 kts 25°
2026-02-19 10:45 41.79890 12.25507 16 ft 1 kts 25°
2026-02-19 10:45 41.79892 12.25508 15 ft 0 kts 25°
2026-02-19 10:48 41.79913 12.25521 14 ft 2 kts 25°
2026-02-19 10:48 41.79949 12.25544 15 ft 13 kts 25°
2026-02-19 10:49 41.79997 12.25605 14 ft 8 kts 95°
2026-02-19 10:49 41.79972 12.25688 14 ft 13 kts 115°
2026-02-19 10:49 41.79932 12.25802 15 ft 10 kts 114°
2026-02-19 10:49 41.79955 12.25873 15 ft 8 kts 33°
2026-02-19 10:50 41.80017 12.25912 14 ft 12 kts 24°
2026-02-19 10:50 41.80102 12.25964 14 ft 13 kts 24°
2026-02-19 10:50 41.80179 12.26011 15 ft 11 kts 25°
2026-02-19 10:50 41.80246 12.26054 14 ft 10 kts 25°
2026-02-19 10:51 41.80305 12.26090 16 ft 8 kts 24°
2026-02-19 10:51 41.80382 12.26137 15 ft 20 kts 25°
2026-02-19 10:51 41.80478 12.26176 16 ft 10 kts
2026-02-19 10:51 41.80524 12.26224 16 ft 8 kts 65°
2026-02-19 10:52 41.80552 12.26326 17 ft 17 kts 70°
2026-02-19 10:52 41.80636 12.26630 16 ft 19 kts 70°
2026-02-19 10:52 41.80685 12.26809 14 ft 22 kts 70°
2026-02-19 10:53 41.80730 12.26972 13 ft 15 kts 69°
2026-02-19 10:53 41.80778 12.27044 13 ft 9 kts 15°
2026-02-19 10:53 41.80834 12.27029 15 ft 8 kts 341°
2026-02-19 10:53 41.80872 12.27010 13 ft 0 kts 340°
2026-02-19 10:54 41.80879 12.27007 13 ft 5 kts 340°
2026-02-19 10:54 41.80922 12.26986 13 ft 8 kts 338°
2026-02-19 10:54 41.80955 12.26918 13 ft 10 kts 262°
2026-02-19 10:54 41.80952 12.26904 13 ft 0 kts 251°
2026-02-19 10:55 41.80943 12.26872 14 ft 22 kts 250°
2026-02-19 10:55 41.80799 12.26350 20 ft 93 kts 250°
2026-02-19 10:55 41.80504 12.25290 16 ft 148 kts 249°
2026-02-19 10:55 41.80109 12.23871 284 ft 168 kts 247°
2026-02-19 10:56 41.79726 12.22382 1065 ft 166 kts 244°
2026-02-19 10:56 41.79283 12.19303 2077 ft 197 kts 274°
2026-02-19 10:56 41.79927 12.17555 2358 ft 220 kts 302°
2026-02-19 10:57 41.80880 12.16045 3414 ft 204 kts 301°
2026-02-19 10:57 41.81790 12.14587 4091 ft 211 kts 301°
2026-02-19 10:57 41.82726 12.13026 4680 ft 217 kts 300°
2026-02-19 10:57 41.83684 12.11443 5397 ft 222 kts 307°
2026-02-19 10:58 41.84958 12.10167 6025 ft 239 kts 327°
2026-02-19 10:58 41.86624 12.09400 6341 ft 267 kts 339°
2026-02-19 10:58 41.88499 12.08716 6725 ft 289 kts 340°
2026-02-19 10:58 41.90473 12.08007 7395 ft 297 kts 340°
2026-02-19 10:59 41.92485 12.07284 8211 ft 301 kts 339°
2026-02-19 10:59 41.94523 12.06544 9058 ft 305 kts 339°
2026-02-19 10:59 41.96633 12.06013 9821 ft 315 kts 350°
2026-02-19 10:59 41.98893 12.05786 10126 ft 338 kts 350°
2026-02-19 11:00 42.01324 12.05542 10407 ft 359 kts 351°
2026-02-19 11:00 42.06398 12.05054 11788 ft 370 kts 351°
2026-02-19 11:00 42.08983 12.04813 12538 ft 373 kts 351°
2026-02-19 11:01 42.11553 12.04570 13257 ft 377 kts 350°
2026-02-19 11:01 42.14218 12.04316 13912 ft 382 kts 350°
2026-02-19 11:01 42.16844 12.04059 14584 ft 384 kts 350°
2026-02-19 11:01 42.19500 12.03654 15326 ft 383 kts 344°
2026-02-19 11:02 42.22142 12.03058 15957 ft 387 kts 343°
2026-02-19 11:02 42.24817 12.02454 16563 ft 391 kts 343°
2026-02-19 11:02 42.27512 12.01843 17162 ft 395 kts 343°
2026-02-19 11:02 42.30230 12.01226 17760 ft 399 kts 343°
2026-02-19 11:03 42.32988 12.00604 18316 ft 403 kts 343°
2026-02-19 11:03 42.35763 11.99982 18833 ft 406 kts 342°
2026-02-19 11:03 42.38572 11.99352 19348 ft 410 kts 342°
2026-02-19 11:03 42.41396 11.98715 19901 ft 414 kts 342°
2026-02-19 11:04 42.44245 11.98069 20416 ft 417 kts 342°
2026-02-19 11:04 42.50032 11.96759 21440 ft 425 kts 341°
2026-02-19 11:04 42.52962 11.96097 21942 ft 429 kts 341°
2026-02-19 11:05 42.55916 11.95432 22426 ft 432 kts 341°
2026-02-19 11:05 42.58896 11.94755 22888 ft 436 kts 341°
2026-02-19 11:05 42.61900 11.94067 23363 ft 439 kts 340°
2026-02-19 11:05 42.64925 11.93375 23735 ft 443 kts 340°
2026-02-19 11:06 42.67973 11.92681 24125 ft 445 kts 340°
2026-02-19 11:06 42.71035 11.91988 24530 ft 448 kts 340°
2026-02-19 11:06 42.74110 11.91293 24897 ft 450 kts 340°
2026-02-19 11:06 42.77205 11.90591 25282 ft 451 kts 340°
2026-02-19 11:07 42.80312 11.89875 25661 ft 453 kts 339°
2026-02-19 11:07 42.83292 11.88846 26025 ft 444 kts 330°
2026-02-19 11:07 42.86108 11.87249 26375 ft 434 kts 321°
2026-02-19 11:07 42.88757 11.85317 26740 ft 434 kts 320°
2026-02-19 11:08 42.91425 11.83358 27179 ft 436 kts 320°
2026-02-19 11:08 42.96785 11.79429 27806 ft 438 kts 320°
2026-02-19 11:08 42.99437 11.77498 27870 ft 426 kts 320°
2026-02-19 11:09 43.02040 11.75608 27901 ft 422 kts 320°
2026-02-19 11:09 43.04620 11.73722 27934 ft 420 kts 320°
2026-02-19 11:09 43.07193 11.71828 27955 ft 420 kts 319°
2026-02-19 11:09 43.09769 11.69926 27974 ft 420 kts 319°
2026-02-19 11:10 43.12339 11.68021 27988 ft 420 kts 319°
2026-02-19 11:10 43.14917 11.66108 27988 ft 423 kts 320°
2026-02-19 11:10 43.17514 11.64184 27985 ft 425 kts 320°
2026-02-19 11:10 43.20181 11.62375 27974 ft 434 kts 327°
2026-02-19 11:11 43.23105 11.61100 27957 ft 448 kts 337°
2026-02-19 11:11 43.26229 11.60478 27972 ft 461 kts 347°
2026-02-19 11:11 43.29441 11.60211 27933 ft 462 kts 347°
2026-02-19 11:11 43.32645 11.59934 27891 ft 462 kts 347°
2026-02-19 11:12 43.35855 11.59650 27856 ft 462 kts 347°
2026-02-19 11:12 43.42275 11.59076 27778 ft 462 kts 347°
2026-02-19 11:12 43.45446 11.58794 27773 ft 463 kts 347°
2026-02-19 11:13 43.48665 11.58512 27716 ft 464 kts 347°
2026-02-19 11:13 43.51880 11.58233 27664 ft 464 kts 347°
2026-02-19 11:13 43.55113 11.57956 27650 ft 465 kts 347°
2026-02-19 11:13 43.58337 11.57675 27645 ft 465 kts 347°
2026-02-19 11:14 43.61569 11.57384 27646 ft 465 kts 347°
2026-02-19 11:14 43.64798 11.57092 27664 ft 466 kts 348°
2026-02-19 11:14 43.68032 11.56802 27660 ft 466 kts 348°
2026-02-19 11:14 43.71267 11.56515 27657 ft 465 kts 348°
2026-02-19 11:15 43.74498 11.56228 27646 ft 465 kts 348°
2026-02-19 11:15 43.76678 11.56034 27643 ft 466 kts 348°
2026-02-19 11:15 43.79912 11.55748 27631 ft 465 kts 348°
2026-02-19 11:15 43.83144 11.55458 27631 ft 466 kts 348°
2026-02-19 11:16 43.86375 11.55164 27628 ft 465 kts 348°
2026-02-19 11:16 43.92767 11.54589 27640 ft 462 kts 348°
2026-02-19 11:16 43.95966 11.54300 27634 ft 461 kts 348°
2026-02-19 11:17 43.99171 11.54016 27635 ft 462 kts 350°
2026-02-19 11:17 44.02401 11.54081 27160 ft 467 kts 356°
2026-02-19 11:17 44.05632 11.54373 26606 ft 463 kts 358°
2026-02-19 11:17 44.08826 11.54691 26112 ft 458 kts 358°
2026-02-19 11:18 44.11986 11.55013 25616 ft 452 kts 358°
2026-02-19 11:18 44.15098 11.55331 25061 ft 448 kts 358°
2026-02-19 11:18 44.18238 11.55636 23905 ft 455 kts 359°
2026-02-19 11:18 44.21399 11.55934 23031 ft 455 kts 359°
2026-02-19 11:19 44.24534 11.56227 22563 ft 448 kts 359°
2026-02-19 11:19 44.27615 11.56735 22086 ft 446 kts
2026-02-19 11:19 44.30615 11.57794 21627 ft 443 kts 12°
2026-02-19 11:19 44.33574 11.58899 21154 ft 438 kts 12°
2026-02-19 11:20 44.36513 11.59993 20695 ft 435 kts 12°
2026-02-19 11:20 44.42315 11.62140 19739 ft 429 kts 13°
2026-02-19 11:20 44.45191 11.63209 19255 ft 426 kts 13°
2026-02-19 11:21 44.48048 11.64277 18777 ft 424 kts 13°
2026-02-19 11:21 44.50883 11.65338 18304 ft 421 kts 13°
2026-02-19 11:21 44.53701 11.66443 17829 ft 420 kts 18°
2026-02-19 11:21 44.56358 11.68092 17316 ft 418 kts 29°
2026-02-19 11:22 44.58786 11.70286 16829 ft 409 kts 34°
2026-02-19 11:22 44.61106 11.72475 16369 ft 396 kts 34°
2026-02-19 11:22 44.63374 11.74617 15921 ft 392 kts 34°
2026-02-19 11:22 44.65636 11.76757 15455 ft 391 kts 33°
2026-02-19 11:23 44.67857 11.78861 15013 ft 390 kts 33°
2026-02-19 11:23 44.70099 11.80986 14556 ft 388 kts 33°
2026-02-19 11:23 44.72330 11.83102 14118 ft 386 kts 33°
2026-02-19 11:23 44.74549 11.85212 13672 ft 384 kts 33°
2026-02-19 11:24 44.76759 11.87311 13227 ft 383 kts 33°
2026-02-19 11:24 44.81147 11.91480 12322 ft 377 kts 33°
2026-02-19 11:24 44.83309 11.93538 11891 ft 374 kts 33°
2026-02-19 11:25 44.85449 11.95577 11590 ft 366 kts 33°
2026-02-19 11:25 44.87536 11.97570 11570 ft 360 kts 33°
2026-02-19 11:25 44.89608 11.99553 11570 ft 359 kts 33°
2026-02-19 11:25 44.91665 12.01528 11207 ft 357 kts 34°
2026-02-19 11:26 44.93607 12.03789 10370 ft 368 kts 41°
2026-02-19 11:26 44.95499 12.06162 10144 ft 358 kts 41°
2026-02-19 11:26 44.97313 12.08429 9950 ft 338 kts 38°
2026-02-19 11:26 44.99258 12.10144 9457 ft 326 kts 21°
2026-02-19 11:27 45.01400 12.11022 8803 ft 316 kts
2026-02-19 11:27 45.03574 12.11056 8329 ft 308 kts 347°
2026-02-19 11:27 45.05676 12.10622 7894 ft 307 kts 346°
2026-02-19 11:27 45.07773 12.10198 7576 ft 302 kts 347°
2026-02-19 11:28 45.09832 12.09790 7048 ft 297 kts 347°
2026-02-19 11:28 45.13877 12.08989 6553 ft 293 kts 347°
2026-02-19 11:28 45.15896 12.08586 6176 ft 292 kts 347°
2026-02-19 11:29 45.17898 12.08185 5770 ft 290 kts 347°
2026-02-19 11:29 45.19888 12.07783 5370 ft 288 kts 347°
2026-02-19 11:29 45.21842 12.07385 4985 ft 287 kts 347°
2026-02-19 11:29 45.23810 12.06983 4642 ft 283 kts 348°
2026-02-19 11:30 45.25713 12.06648 4570 ft 270 kts 355°
2026-02-19 11:30 45.27538 12.06959 4472 ft 261 kts 14°
2026-02-19 11:30 45.29155 12.08007 4358 ft 252 kts 34°
2026-02-19 11:30 45.30471 12.09558 4243 ft 241 kts 43°
2026-02-19 11:31 45.31694 12.11113 4137 ft 233 kts 43°
2026-02-19 11:31 45.32894 12.12640 4027 ft 230 kts 44°
2026-02-19 11:31 45.34080 12.14152 3983 ft 229 kts 45°
2026-02-19 11:31 45.35269 12.15669 3777 ft 230 kts 45°
2026-02-19 11:32 45.36455 12.17182 3487 ft 229 kts 45°
2026-02-19 11:32 45.38778 12.20146 2886 ft 220 kts 47°
2026-02-19 11:32 45.39901 12.21581 2592 ft 214 kts 47°
2026-02-19 11:33 45.40991 12.22972 2308 ft 206 kts 49°
2026-02-19 11:33 45.42019 12.24285 2037 ft 191 kts 49°
2026-02-19 11:33 45.42966 12.25494 1814 ft 173 kts 50°
2026-02-19 11:33 45.43834 12.26606 1582 ft 163 kts 50°
2026-02-19 11:34 45.44636 12.27636 1369 ft 159 kts 51°
2026-02-19 11:34 45.45452 12.28684 1139 ft 154 kts 49°
2026-02-19 11:34 45.46228 12.29680 923 ft 151 kts 48°
2026-02-19 11:34 45.46998 12.30669 705 ft 147 kts 47°
2026-02-19 11:35 45.47750 12.31633 501 ft 144 kts 47°
2026-02-19 11:35 45.48494 12.32578 314 ft 144 kts 48°
2026-02-19 11:35 45.49237 12.33546 116 ft 145 kts 47°
2026-02-19 11:35 45.49973 12.34499 17 ft 133 kts 43°
2026-02-19 11:36 45.50542 12.35228 13 ft 85 kts 41°
2026-02-19 11:36 45.51018 12.35804 16 ft 29 kts 27°
2026-02-19 11:36 45.51173 12.35877 14 ft 10 kts 12°
2026-02-19 11:37 45.51209 12.35887 14 ft 4 kts 12°
2026-02-19 11:37 45.51233 12.35892 14 ft 4 kts 359°
2026-02-19 11:37 45.51271 12.35858 14 ft 7 kts 299°
2026-02-19 11:37 45.51263 12.35805 14 ft 4 kts 234°
2026-02-19 11:38 45.51252 12.35790 14 ft 0 kts 226°
2026-02-19 11:39 45.51239 12.35772 15 ft 7 kts 222°
2026-02-19 11:39 45.51176 12.35691 15 ft 16 kts 222°
2026-02-19 11:39 45.51093 12.35584 16 ft 16 kts 222°
2026-02-19 11:40 45.51009 12.35476 17 ft 16 kts 222°
2026-02-19 11:40 45.50839 12.35257 17 ft 20 kts 223°
2026-02-19 11:40 45.50732 12.35121 15 ft 21 kts 223°
2026-02-19 11:41 45.50645 12.35007 14 ft 7 kts 221°
2026-02-19 11:41 45.50613 12.34934 15 ft 12 kts 260°
2026-02-19 11:41 45.50610 12.34815 15 ft 10 kts 267°
2026-02-19 11:41 45.50607 12.34730 16 ft 9 kts 268°
2026-02-19 11:42 45.50603 12.34609 16 ft 15 kts 267°
2026-02-19 11:42 45.50598 12.34461 16 ft 13 kts 267°
2026-02-19 11:42 45.50568 12.34387 16 ft 8 kts 222°
2026-02-19 11:42 45.50549 12.34363 16 ft 1 kts 225°
2026-02-19 11:43 45.50544 12.34351 16 ft 4 kts 238°
2026-02-19 11:43 45.50550 12.34309 16 ft 3 kts 292°
2026-02-19 11:43 45.50553 12.34272 16 ft 6 kts 270°
2026-02-19 11:43 45.50552 12.34237 16 ft 0 kts 268°
2026-02-19 11:45 45.50552 12.34227 16 ft 4 kts 268°
2026-02-19 11:45 45.50552 12.34222 16 ft 1 kts 268°
2026-02-19 11:45 45.50552 12.34220 16 ft 0 kts 268°